Regional Weather Roundup
Issued by NWS Kansas City/Pleasant Hill, MO

Home | Current Version | Previous Version | Text Only | Print | Product List | Glossary On
Versions: 1 2 3 4 5 6 7 8 9 10 11 12 13 14 15 16 17 18 19 20 21 22 23 24 25 26 27 28 29 30 31 32 33 34 35 36 37 38 39 40 41 42 43 44 45 46 47 48 49 50
000
ASUS43 KEAX 120504
RWREAX

WEATHER ROUNDUP FOR EASTERN KANSAS AND NORTHWEST MISSOURI
NATIONAL WEATHER SERVICE KANSAS CITY/PLEASANT HILL MO
1200 AM CDT SAT JUL 12 2014

KSZ040-057-103>105-MOZ028-029-037-043-120600-
...KANSAS CITY METROPOLITAN AREA...

CITY           SKY/WX    TMP DP  RH WIND       PRES   REMARKS
K.C. INTL      CLEAR     79  70  74 S9        30.07R
K.C. DOWNTOWN  CLEAR     83  70  64 S8        30.05R
LEES SUMMIT    CLEAR     80  71  74 SW9       30.08R
OLATHE - IXD   PTCLDY    78  71  79 S8        30.08R
OLATHE - OJC   MOCLDY    78  71  79 S7        30.08R
LAWRENCE       CLEAR     79  70  74 S6        30.06R

$$

MOZ001>008-011>017-020>025-030>033-038>040-044>046-053-054-120600-
...NORTHERN AND CENTRAL MISSOURI...

CITY           SKY/WX    TMP DP  RH WIND       PRES   REMARKS
ST. JOSEPH     CLEAR     80  72  76 SW8       30.04R
MOSBY          CLEAR     79  72  78 S3        30.06R
WHITEMAN AFB   CLEAR     75  68  78 SW8       30.08R
CLINTON        CLEAR     79  73  83 S6        30.10R
SEDALIA        PTCLDY    80  73  79 SW9       30.09R
WARSAW         NOT AVBL
MARSHALL         N/A     82  77  83 SW7       30.08R HAZE    HX  91
CHILLICOTHE      N/A     82  74  76 SW5       30.06R
KIRKSVILLE     CLEAR     73  72  96 CALM      30.06S

$$

MOZ041-047>049-056>058-063>065-088>090-097-120600-
...EASTERN AND SOUTHERN MISSOURI...

CITY           SKY/WX    TMP DP  RH WIND       PRES   REMARKS
ST. LOUIS INTL MOCLDY    83  70  64 S12       30.10R
SPIRIT OF STL  PTCLDY    80  70  71 S8        30.08R
COLUMBIA       CLEAR     78  74  87 S8        30.09R
HANNIBAL       MOCLDY    79  70  73 S6        30.07S
ROLLA          CLOUDY    78  72  81 S12       30.12R
LEBANON        CLEAR     79  72  78 S8        30.15R
OSAGE BEACH    CLEAR     79  72  78 S6        30.11R
SPRINGFIELD    CLEAR     76  70  82 S8        30.14R
BRANSON        PTCLDY    75  70  83 S3        30.17S
NEVADA         CLEAR     75  70  83 S6        30.11S
JOPLIN         CLEAR     77  70  79 S8        30.12S
WEST PLAINS    CLOUDY    77  72  84 S3        30.18R
PIEDMONT       CLEAR     72  70  94 CALM      30.15S
MALDEN         CLEAR     79  72  78 S3        30.14S

$$

IAZ060-094-KSZ022-034>040-054-083-096-NEZ052-066-093-120600-
...KANSAS...SOUTHEAST NEBRASKA AND IOWA...

CITY           SKY/WX    TMP DP  RH WIND       PRES   REMARKS
TOPEKA         CLEAR     82  70  66 S7        30.06R
MANHATTAN      CLEAR     83  66  56 S16G22    30.02F
EMPORIA        CLEAR     76  68  76 S9        30.08R
CHANUTE        CLEAR     77  70  79 S8        30.10R
WICHITA        CLEAR     77  66  68 S10       30.07R
OMAHA          MOCLDY    78  73  84 SE8       29.98F
LINCOLN        CLEAR     80  73  79 S8        29.97F
FALLS CITY     PTCLDY    80  72  76 S8        30.01S
LAMONI         PTCLDY    75  73  93 E6        30.04S
DES MOINES     CLOUDY    75  72  90 SE3       30.02S

$$




USA.gov is the U.S. government's official web portal to all federal, state and local government web resources and services.